Printer-friendly version
Follow the MPC on Twitter Follow the MPC on Facebook The MPC blog
Minor Planet Center

MPEC 2000-U46 : 2000 UR13

The following Minor Planet Electronic Circular may be linked-to from your own Web pages, but must not otherwise be redistributed electronically.

A form allowing access to any MPEC is at the bottom of this page.


Read MPEC 2000-U45 Read MPEC 2000-U47


M.P.E.C. 2000-U46                                Issued 2000 Oct. 31, 19:46 UT

     The Minor Planet Electronic Circulars contain information on unusual
         minor planets and routine data on comets.  They are published
   on behalf of Commission 20 of the International Astronomical Union by the
          Minor Planet Center, Smithsonian Astrophysical Observatory,
                          Cambridge, MA 02138, U.S.A.

             Prepared using the Tamkin Foundation Computer Network

                              MPC@CFA.HARVARD.EDU
          URL http://cfa-www.harvard.edu/iau/mpc.html  ISSN 1523-6714

                                   2000 UR13

Observations:
     K00U13R* C2000 10 27.25320 01 35 30.85 +20 10 42.4          20.0 V      691
     K00U13R  C2000 10 27.27503 01 35 29.29 +20 10 33.6          20.0 V      691
     K00U13R  C2000 10 27.29553 01 35 27.82 +20 10 25.2          20.0 V      691
     K00U13R HC2000 10 29.25782 01 33 13.06 +19 56 54.2          19.9 V      691
     K00U13R HC2000 10 29.27192 01 33 12.11 +19 56 48.1          20.3 V      691
     K00U13R  C2000 10 30.21298 01 32 08.69 +19 50 14.7          20.6 V      691
     K00U13R  C2000 10 30.21765 01 32 08.38 +19 50 12.7          20.6 V      691
     K00U13R  C2000 10 30.22227 01 32 08.04 +19 50 10.7          20.6 V      691

Observer details:
691 Steward Observatory, Kitt Peak.  Observers T. Gehrels, J. V. Scotti,
    R. S. McMillan.  0.9-m Spacewatch telescope.

Orbital elements:
2000 UR13
Epoch 2000 Oct. 23.0 TT = JDT 2451840.5                 Williams
M 127.48931              (2000.0)            P               Q
n   0.33631869     Peri.  280.54267     -0.57047788     +0.81760525
a   2.0478684      Node   314.38082     -0.70443714     -0.53588781
e   0.4261039      Incl.    6.26169     -0.42228344     -0.21058471
P   2.93           H   16.4           G   0.15
From 8 observations 2000 Oct. 27-30.

Ephemeris:
2000 UR13                a,e,i = 2.05, 0.43, 6                   q = 1.1753
Date    TT    R. A. (2000) Decl.     Delta      r     Elong.  Phase     V
2000 10 23    01 40.53   +20 39.0    1.753    2.739   170.4     3.5    20.1
2000 11 02    01 29.09   +19 30.6    1.792    2.762   164.7     5.4    20.3
2000 11 12    01 19.42   +18 20.3    1.860    2.783   153.8     9.0    20.6
2000 11 22    01 12.22   +17 15.6    1.955    2.802   142.3    12.4    20.8
2000 12 02    01 07.83   +16 22.4    2.071    2.820   131.2    15.2    21.1
2000 12 12    01 06.25   +15 44.0    2.205    2.837   120.7    17.4    21.3
2000 12 22    01 07.27   +15 21.3    2.351    2.852   110.7    18.8    21.5
2001 01 01    01 10.62   +15 13.9    2.505    2.866   101.4    19.7    21.7
2001 01 11    01 15.96   +15 20.4    2.662    2.878    92.5    20.0    21.8
2001 01 21    01 23.01   +15 38.8    2.819    2.888    84.1    19.8    21.9

Timothy B. Spahr             (C) Copyright 2000 MPC           M.P.E.C. 2000-U46

Read MPEC 2000-U45 Read MPEC 2000-U47


MPEC number:

Enter an MPEC number in one of the following forms:

  • 1997-B01 (the full form)
  • J97B01 (the packed version of the full form)
  • B01 (the abbreviated form)

Valid HTML 4.01!